Weather History for KW99 - February, 2013

Change the Weather History Date:

Monday, February 11, 2013

  Actual Average (KEKN) Record (KEKN)
Temperature  
Mean Temperature 55 °F 31 °F  
Max Temperature 68 °F 42 °F 77 °F (1932)
Min Temperature 42 °F 21 °F -20 °F (1899)
Degree Days  
Heating Degree Days 10 34  
Month to date heating degree days 379  
Since 1 July heating degree days 3780  
Cooling Degree Days 0 0  
Month to date cooling degree days 0  
Year to date cooling degree days 0  
Growing Degree Days 5 (Base 50)    
Moisture  
Dew Point 33 °F    
Average Humidity 50    
Maximum Humidity 79    
Minimum Humidity 16    
Precipitation  
Precipitation 0.01 in 0.11 in 1.12 in (1938)
Month to date precipitation 1.17  
Year to date precipitation 4.40  
Snow  
Snow 0.00 in - - ()
Month to date snowfall  
Since 1 September snowfall  
Snow Depth -    
Sea Level Pressure  
Sea Level Pressure 29.88 in    
Wind  
Wind Speed 9 mph (SSW)    
Max Wind Speed 32 mph    
Max Gust Speed 45 mph    
Visibility 10 miles    
Events Rain    
T = Trace of Precipitation, MM = Missing Value Source: NWS Daily Summary

Daily Weather History Graph

Daily Weather History Graph

Search for Another Location

Airport or City:

Trip Planner

Search our weather history database for the weather conditions in past years. The results will help you decide how hot, cold, wet, or windy it might be!

Date:

Astronomy

Feb. 11, 2013 Rise Set
Actual Time 7:12 AM EST 5:49 PM EST
Civil Twilight 6:44 AM EST 6:17 PM EST
Nautical Twilight 6:13 AM EST 6:48 PM EST
Astronomical Twilight 5:42 AM EST 7:19 PM EST
Moon 7:37 AM EST (2/11) 7:43 PM EST (2/11)
Length of Visible Light 11h 32m
Length of Day
10h 37m
Waxing Crescent, 3% of the Moon is Illuminated
Feb 11
Waxing Crescent
Feb 17
First Quarter
Feb 25
Full
Mar 4
Last Quarter
Mar 11
New

Hourly Weather History & Observations

Time (EST) Temp. Windchill Dew Point Humidity Pressure Visibility Wind Dir Wind Speed Gust Speed Precip Events Conditions
12:15 AM 43.3 °F 41.7 °F 29.7 °F 59% 30.12 in 10.0 mi SSE 3.5 mph - N/A   Overcast
12:35 AM 43.7 °F 41.1 °F 30.2 °F 59% 30.11 in 10.0 mi South 4.6 mph - N/A   Drizzle
12:55 AM 43.9 °F - 30.7 °F 60% 30.10 in 10.0 mi Calm Calm - N/A   Overcast
1:15 AM 43.9 °F 42.3 °F 31.6 °F 62% 30.09 in 10.0 mi SW 3.5 mph - N/A   Overcast
1:35 AM 44.2 °F - 32.7 °F 64% 30.09 in 10.0 mi Calm Calm - N/A   Light Drizzle
1:55 AM 43.9 °F 40.5 °F 33.6 °F 67% 30.07 in 10.0 mi SE 5.8 mph - N/A   Overcast
2:15 AM 43.7 °F - 34.0 °F 69% 30.06 in 10.0 mi Calm Calm - N/A Rain Rain
2:35 AM 42.4 °F 38.1 °F 35.6 °F 77% 30.05 in 5.0 mi ESE 6.9 mph - N/A   Drizzle
2:55 AM 43.2 °F 38.4 °F 35.6 °F 75% 30.04 in 10.0 mi SE 8.1 mph - N/A   Overcast
3:15 AM 43.7 °F 38.6 °F 35.4 °F 73% 30.02 in 10.0 mi ESE 9.2 mph 17.3 mph N/A   Overcast
3:35 AM 43.5 °F 38.9 °F 35.4 °F 73% 30.00 in 10.0 mi SE 8.1 mph - N/A   Overcast
3:55 AM 43.7 °F 39.7 °F 35.6 °F 73% 29.98 in 10.0 mi SE 6.9 mph 16.1 mph N/A   Overcast
4:15 AM 43.9 °F 39.3 °F 36.3 °F 75% 29.97 in 10.0 mi SE 8.1 mph - N/A   Light Drizzle
4:35 AM 43.9 °F 39.3 °F 37.2 °F 77% 29.96 in 10.0 mi SE 8.1 mph - N/A   Light Drizzle
4:55 AM 45.1 °F 39.9 °F 38.3 °F 77% 29.94 in 10.0 mi SE 10.4 mph - N/A   Scattered Clouds
5:15 AM 45.7 °F 40.2 °F 38.8 °F 77% 29.94 in 10.0 mi SE 11.5 mph - N/A   Scattered Clouds
5:35 AM 47.7 °F - 40.1 °F 75% 29.93 in 10.0 mi South 12.7 mph 17.3 mph N/A   Mostly Cloudy
5:55 AM 48.9 °F - 40.6 °F 73% 29.93 in 10.0 mi South 11.5 mph 20.7 mph N/A   Mostly Cloudy
6:15 AM 50.0 °F - 41.0 °F 71% 29.92 in 10.0 mi SSW 9.2 mph 19.6 mph N/A   Scattered Clouds
6:55 AM 50.5 °F - 41.4 °F 71% 29.91 in 10.0 mi SSW 10.4 mph 20.7 mph N/A   Clear
7:15 AM 50.2 °F - 41.5 °F 72% 29.90 in 10.0 mi SSW 11.5 mph 21.9 mph N/A   Clear
7:35 AM 50.2 °F - 41.4 °F 72% 29.91 in 10.0 mi SSW 11.5 mph 19.6 mph N/A   Clear
7:55 AM 49.3 °F - 40.6 °F 72% 29.90 in 10.0 mi SSW 13.8 mph 21.9 mph N/A   Clear
8:15 AM 44.6 °F - 38.3 °F 79% 29.91 in 10.0 mi Calm Calm - N/A   Light Drizzle
8:35 AM 50.2 °F - 41.9 °F 73% 29.91 in 10.0 mi SSW 10.4 mph 17.3 mph N/A Rain Light Rain
8:55 AM 51.6 °F - 42.1 °F 70% 29.91 in 10.0 mi Calm Calm - N/A   Mostly Cloudy
9:15 AM 50.7 °F - 42.4 °F 73% 29.92 in 10.0 mi WSW 3.5 mph - N/A   Mostly Cloudy
9:35 AM 50.2 °F - 43.5 °F 78% 29.91 in 7.0 mi SSW 9.2 mph - N/A Rain Light Rain
9:55 AM 52.9 °F - 45.9 °F 77% 29.90 in 10.0 mi West 5.8 mph 16.1 mph 0.01 in   Mostly Cloudy
10:15 AM 53.6 °F - 46.6 °F 77% 29.88 in 10.0 mi South 8.1 mph - N/A   Mostly Cloudy
10:35 AM 55.8 °F - 46.8 °F 72% 29.87 in 10.0 mi SSW 10.4 mph 18.4 mph N/A   Scattered Clouds
10:55 AM 58.8 °F - 47.5 °F 66% 29.86 in 10.0 mi SSW 10.4 mph 18.4 mph N/A   Scattered Clouds
11:15 AM 60.8 °F - 48.0 °F 63% 29.85 in 10.0 mi South 16.1 mph 21.9 mph N/A   Scattered Clouds
11:35 AM 61.7 °F - 48.2 °F 61% 29.84 in 10.0 mi South 13.8 mph 19.6 mph N/A   Scattered Clouds
11:55 AM 62.2 °F - 47.3 °F 58% 29.82 in 10.0 mi South 16.1 mph 19.6 mph N/A   Clear
12:15 PM 63.1 °F - 47.1 °F 56% 29.81 in 10.0 mi South 15.0 mph 20.7 mph N/A   Clear
12:35 PM 64.8 °F - 46.8 °F 52% 29.79 in 10.0 mi South 10.4 mph 19.6 mph N/A   Clear
12:55 PM 68.2 °F - 44.8 °F 43% 29.78 in 10.0 mi SSW 17.3 mph 20.7 mph N/A   Scattered Clouds
1:15 PM 67.5 °F - 41.0 °F 38% 29.75 in 10.0 mi SSW 15.0 mph 26.5 mph N/A   Scattered Clouds
1:35 PM 68.0 °F - 41.9 °F 39% 29.76 in 10.0 mi SSW 12.7 mph 24.2 mph N/A   Scattered Clouds
1:55 PM 67.5 °F - 41.7 °F 39% 29.74 in 10.0 mi SSW 12.7 mph 21.9 mph N/A   Scattered Clouds
2:15 PM 67.6 °F - 38.7 °F 35% 29.73 in 10.0 mi SW 11.5 mph 20.7 mph N/A   Scattered Clouds
2:35 PM 68.0 °F - 36.0 °F 31% 29.73 in 10.0 mi SW 18.4 mph 26.5 mph N/A   Scattered Clouds
2:55 PM 68.0 °F - 32.2 °F 26% 29.73 in 10.0 mi SW 16.1 mph 32.2 mph N/A   Scattered Clouds
3:15 PM 67.3 °F - 29.1 °F 24% 29.74 in 10.0 mi SW 16.1 mph 23.0 mph N/A   Clear
3:35 PM 67.1 °F - 26.8 °F 22% 29.74 in 10.0 mi SW 16.1 mph 24.2 mph N/A   Clear
3:55 PM 66.2 °F - 25.9 °F 22% 29.73 in 10.0 mi SW 19.6 mph 28.8 mph N/A   Clear
4:15 PM 66.6 °F - 23.4 °F 19% 29.74 in 10.0 mi WSW 13.8 mph 26.5 mph N/A   Clear
4:35 PM 65.3 °F - 20.7 °F 18% 29.74 in 10.0 mi WSW 17.3 mph 25.3 mph N/A   Clear
4:55 PM 65.1 °F - 17.6 °F 16% 29.74 in 10.0 mi West 19.6 mph 36.8 mph N/A   Clear
5:55 PM 61.5 °F - 19.2 °F 20% 29.75 in 10.0 mi SW 9.2 mph 27.6 mph N/A   Clear
6:15 PM 62.1 °F - 18.9 °F 19% 29.75 in 10.0 mi WSW 13.8 mph 33.4 mph N/A   Clear
6:35 PM 61.0 °F - 19.2 °F 20% 29.76 in 10.0 mi WSW 8.1 mph 18.4 mph N/A   Clear
6:55 PM 60.4 °F - 20.7 °F 22% 29.77 in 10.0 mi WSW 6.9 mph 19.6 mph N/A   Clear
7:15 PM 57.2 °F - 22.5 °F 26% 29.77 in 10.0 mi Calm Calm - N/A   Clear
7:35 PM 57.7 °F - 23.0 °F 26% 29.79 in 10.0 mi WNW 6.9 mph 19.6 mph N/A   Clear
7:55 PM 57.7 °F - 21.9 °F 25% 29.81 in 10.0 mi West 13.8 mph 24.2 mph N/A   Clear
8:15 PM 58.5 °F - 18.5 °F 21% 29.80 in 10.0 mi WSW 19.6 mph 34.5 mph N/A   Clear
8:35 PM 57.0 °F - 19.4 °F 23% 29.82 in 10.0 mi West 12.7 mph 24.2 mph N/A   Clear
8:55 PM 56.5 °F - 20.7 °F 25% 29.83 in 10.0 mi WSW 23.0 mph 29.9 mph N/A   Clear
9:15 PM 55.4 °F - 21.0 °F 26% 29.85 in 10.0 mi WSW 15.0 mph 26.5 mph N/A   Clear
9:35 PM 54.0 °F - 21.6 °F 28% 29.85 in 10.0 mi WSW 15.0 mph 23.0 mph N/A   Clear
9:55 PM 53.4 °F - 22.3 °F 30% 29.86 in 10.0 mi West 16.1 mph 27.6 mph N/A   Clear
10:15 PM 52.7 °F - 22.1 °F 30% 29.88 in 10.0 mi WSW 20.7 mph 27.6 mph N/A   Clear
10:35 PM 51.8 °F - 23.5 °F 33% 29.88 in 10.0 mi WSW 13.8 mph 26.5 mph N/A   Clear
10:55 PM 50.9 °F - 24.8 °F 36% 29.89 in 10.0 mi West 18.4 mph 25.3 mph N/A   Scattered Clouds
11:15 PM 49.8 °F - 25.3 °F 39% 29.90 in 10.0 mi West 20.7 mph 29.9 mph N/A   Scattered Clouds
11:35 PM 49.6 °F - 24.6 °F 38% 29.90 in 10.0 mi West 32.2 mph 44.9 mph N/A   Scattered Clouds
11:55 PM 49.5 °F - 25.5 °F 39% 29.91 in 10.0 mi West 16.1 mph 35.7 mph N/A   Mostly Cloudy